This is the latest recevied weather packets stored in our database for station/object NA9VY-8. If no packets are shown the sender has not sent any weather packets the latest 10 day(s).
| Time | Temp. | Humidity | Pressure | Rain* | Wind** | Luminosity | Snow |
|---|---|---|---|---|---|---|---|
| 1777852247 | 16.11° C | 53% | 1016.4 hPa | 0 mm | - | 16 W/m² | - |
| 1777851944 | 16.11° C | 53% | 1016.3 hPa | 0 mm | - | 13 W/m² | - |
| 1777851643 | 16.11° C | 51% | 1016 hPa | 0 mm | - | 18 W/m² | - |
| 1777851339 | 16.11° C | 51% | 1015.9 hPa | 0 mm | - | 26 W/m² | - |
| 1777851035 | 16.67° C | 52% | 1015.8 hPa | 0 mm | - | 38 W/m² | - |
| 1777850732 | 16.67° C | 52% | 1015.6 hPa | 0 mm | - | 67 W/m² | - |
| 1777850430 | 16.67° C | 50% | 1015.6 hPa | 0 mm | - | 64 W/m² | - |
| 1777850127 | 16.67° C | 51% | 1015.8 hPa | 0 mm | - | 57 W/m² | - |
| 1777849824 | 16.67° C | 52% | 1015.8 hPa | 0 mm | - | 66 W/m² | - |
| 1777849520 | 16.67° C | 53% | 1015.8 hPa | 0 mm | - | 55 W/m² | - |
| 1777849218 | 16.67° C | 50% | 1015.9 hPa | 0 mm | - | 69 W/m² | - |
| 1777848915 | 16.67° C | 51% | 1015.8 hPa | 0 mm | - | 92 W/m² | - |
| 1777848609 | 16.67° C | 52% | 1016 hPa | 0 mm | - | 97 W/m² | - |
| 1777848308 | 16.67° C | 50% | 1015.9 hPa | 0 mm | - | 111 W/m² | - |
| 1777848005 | 16.67° C | 49% | 1015.5 hPa | 0 mm | - | 102 W/m² | - |
| 1777847703 | 16.67° C | 52% | 1016 hPa | 0 mm | - | 91 W/m² | - |
| 1777847398 | 16.67° C | 51% | 1016.2 hPa | 0 mm | - | 103 W/m² | - |
| 1777847097 | 16.67° C | 49% | 1016.4 hPa | 0 mm | - | 61 W/m² | - |
| 1777846794 | 16.67° C | 49% | 1016.8 hPa | 0 mm | - | 119 W/m² | - |
| 1777846492 | 16.67° C | 48% | 1017.2 hPa | 0 mm | - | 154 W/m² | - |
| 1777846189 | 16.67° C | 49% | 1017.3 hPa | 0 mm | - | 138 W/m² | - |
| 1777845885 | 16.67° C | 51% | 1017.2 hPa | 0 mm | - | 148 W/m² | - |
| 1777845582 | 16.67° C | 48% | 1017.3 hPa | 0 mm | - | 171 W/m² | - |
| 1777845279 | 16.67° C | 48% | 1017 hPa | 0 mm | - | 165 W/m² | - |
| 1777844977 | 16.67° C | 49% | 1017.3 hPa | 0 mm | - | 146 W/m² | - |
* Rain latest hour (hover to see other rain measurements)
** Current wind speed in m/s (hover to see current wind gust speed)